TimeCDT,TemperatureF,Dew PointF,Humidity,Sea Level PressureIn,VisibilityMPH,Wind Direction,Wind SpeedMPH,Gust SpeedMPH,PrecipitationIn,Events,Conditions,WindDirDegrees,DateUTC
12:55 AM,68.2,52.7,58,29.90,10.0,South,9.2,-,N/A,,Clear,190,2012-11-03 05:55:00
1:55 AM,66.7,52.7,61,29.89,10.0,South,15.0,-,N/A,,Clear,180,2012-11-03 06:55:00
2:55 AM,65.3,53.1,65,29.89,10.0,South,12.7,-,N/A,,Clear,180,2012-11-03 07:55:00
3:55 AM,65.5,53.2,65,29.90,10.0,SSW,12.7,-,N/A,,Clear,200,2012-11-03 08:55:00
4:55 AM,64.6,54.3,69,29.91,10.0,South,6.9,-,N/A,,Clear,180,2012-11-03 09:55:00
5:55 AM,62.8,53.8,72,29.97,10.0,NNE,6.9,-,N/A,,Clear,20,2012-11-03 10:55:00
6:55 AM,56.3,51.8,85,30.01,10.0,NNE,5.8,-,N/A,,Clear,30,2012-11-03 11:55:00
7:55 AM,56.3,48.4,75,30.05,10.0,NW,8.1,-,N/A,,Clear,320,2012-11-03 12:55:00
8:55 AM,56.1,44.2,64,30.09,10.0,NNW,8.1,-,N/A,,Clear,330,2012-11-03 13:55:00
9:55 AM,58.3,44.2,60,30.10,10.0,North,9.2,-,N/A,,Clear,360,2012-11-03 14:55:00
10:55 AM,59.9,44.8,57,30.10,10.0,Variable,4.6,-,N/A,,Clear,0,2012-11-03 15:55:00
11:55 AM,63.0,45.7,53,30.10,10.0,North,5.8,-,N/A,,Clear,10,2012-11-03 16:55:00
12:55 PM,64.6,46.4,52,30.08,10.0,Variable,4.6,-,N/A,,Clear,0,2012-11-03 17:55:00
1:55 PM,68.4,47.8,48,30.06,10.0,North,4.6,-,N/A,,Clear,350,2012-11-03 18:55:00
2:55 PM,70.9,49.1,46,30.03,10.0,North,4.6,-,N/A,,Clear,350,2012-11-03 19:55:00
3:55 PM,71.8,50.2,46,30.02,10.0,NNW,8.1,-,N/A,,Clear,340,2012-11-03 20:55:00
4:55 PM,71.4,50.0,47,30.02,10.0,NNW,8.1,-,N/A,,Clear,340,2012-11-03 21:55:00
5:55 PM,69.6,47.7,45,30.02,10.0,NNE,12.7,-,N/A,,Clear,20,2012-11-03 22:55:00
6:55 PM,66.0,46.8,50,30.05,10.0,NNE,8.1,-,N/A,,Clear,30,2012-11-03 23:55:00
7:55 PM,62.2,45.7,55,30.07,10.0,NNE,6.9,-,N/A,,Partly Cloudy,20,2012-11-04 00:55:00
8:55 PM,58.3,45.9,63,30.09,10.0,North,5.8,-,N/A,,Scattered Clouds,350,2012-11-04 01:55:00
9:55 PM,58.6,44.6,60,30.10,6.0,NNW,4.6,-,N/A,,Haze,340,2012-11-04 02:55:00
10:55 PM,56.5,44.2,64,30.12,10.0,NW,4.6,-,N/A,,Clear,320,2012-11-04 03:55:00
11:55 PM,56.1,45.5,68,30.12,9.0,North,4.6,-,N/A,,Scattered Clouds,350,2012-11-04 04:55:00